Overview Statistics Trail Chart Weather Telemetry Raw packets
 

This is the latest recevied weather packets stored in our database for station/object TB1YZC-13. If no packets are shown the sender has not sent any weather packets the latest 10 day(s).

<< 17 18 19 20 21 22 23 >>
Time Temp. Humidity Pressure Rain* Wind** Luminosity Snow
1788398274 20.56° C 90% 1018 hPa - - - -
1788397671 20.56° C 90% 1018.1 hPa - - - -
1788397068 20.56° C 93% 1018.1 hPa - - - -
1788396465 20.56° C 91% 1018.1 hPa - - - -
1788395862 21.11° C 90% 1018 hPa - - - -
1788395259 20.56° C 92% 1018 hPa - - - -
1788394656 20.56° C 92% 1018.1 hPa - - - -
1788394053 21.11° C 92% 1017.9 hPa - - - -
1788393450 20.56° C 94% 1017.7 hPa - - - -
1788392846 20.56° C 93% 1017.6 hPa - - - -
1788392243 21.11° C 94% 1017.7 hPa - - - -
1788391641 20.56° C 94% 1017.7 hPa - - - -
1788391037 20.56° C 92% 1017.9 hPa - - - -
1788390434 21.67° C 89% 1018.1 hPa - - - -
1788389831 21.11° C 89% 1018.1 hPa - - - -
1788389227 21.11° C 89% 1018.3 hPa - - - -
1788388624 21.67° C 89% 1018.2 hPa - - - -
1788388021 21.11° C 93% 1018.5 hPa - - - -
1788387418 20.56° C 92% 1018.6 hPa - - - -
1788386814 21.11° C 90% 1018.8 hPa - - - -
1788386211 21.67° C 89% 1018.8 hPa - - - -
1788385608 21.11° C 90% 1018.9 hPa - - - -
1788385005 21.11° C 89% 1018.7 hPa - - - -
1788384401 21.67° C 87% 1018.6 hPa - - - -
1788383798 21.67° C 87% 1018.5 hPa - - - -

* Rain since midnight (hover to see other rain measurements)
** Current wind speed in m/s (hover to see current wind gust speed)